STARLINK-36374, 67417

Orbit data source: Space-Track

STARLINK-36374, 67417 is a payload satellite owned by SpaceX/Seattle (US) in LEO that was launched on Mon, 12 Jan 2026 UTC via an FALCON 9 launch vehicle from the Air Force Eastern Test Range (AFETR). Payload-class satellites include a variety of spacecraft equipped with specific instruments for various scientific and technological missions. These include communications satellites like Starlink; space stations such as the ISS; scientific satellites like the Hubble; Earth observation satellites from companies like Planet Labs, Umbra, and HawkEye 360; GPS; miniature CubeSats for education and research; and military/defense satellites.

Loading next visibility...
Identifier
67417, 2026-005P
Orbit
LEO
Country
Flag of USUS
Related business
Manufacturer
SpaceX/Seattle
Mission
Operational Commercial Communications
Bus & Motor
STARLINK V2MO, Unknown motor
Mass
575 kg wet, ~530 kg dry
Launch date (UTC)
2026-01-12 (5 months ago)
Launch vehicle
FALCON 9
Launch site
Air Force Eastern Test Range (AFETR)
Object type
Payload
Rocket body
Debris
Shape & HBR
Box + 2 Pan, 17.7 m
Radar Cross Section
36.964 m², Large (>1 m²)

Expand to show TLE details & history
Last TLE update: 15 hours ago

TLE from 15 hours ago
0 STARLINK-36374
1 67417U 26005P   26171.26997887  .00006258  00000-0  23669-3 0  9991
2 67417  43.0011  18.7669 0003071 269.5664  90.4836 15.27586666 24381
Epoch: 2026-06-20T06:28Z
TLE epoch observation values (Epoch: 2026-06-20T06:28:46.174Z)
Latitude
Longitude
13.08749°
Altitude
482.823 km
Speed
7.626 km/s
True Right ascension
01h 15m 04s
True Declination
0° 00' 00"
Sunlit
Object was in daylight at epoch
Visualization orbit readout
Latitude
Unknown
Longitude
Unknown
Altitude
Unknown
Speed
Unknown
Apparent Right ascension
Unknown
Apparent Declination
Unknown
Sunlit
N/A
Visualization observer readout
Local Sidereal Time
08:32:59
Azimuth
Unknown
Elevation
Unknown
Doppler factor
Unknown
Orbital elements
Apogee altitude
487.082 km
Perigee altitude
482.866 km
Semi-major axis
6,863.111 km
Eccentricity
0.00031
Inclination
43.0011°
RAAN
18.7669°
Arg. of periapsis
269.5664°
True anomaly
90.51879°
Mean anomaly
90.4836°
Eccentric anomaly
90.50119°
Mean motion
3.81735 °/min
Orbital period
94.31 mins
BSTAR
0.00023669
Loading maneuver chart data...
Computing Atmospheric mass density...
Loading historical data...
Loading historical data...
Loading historical data...
Loading historical data...
Loading historical data...
Loading historical data...
Loading historical data...

Documentation

Showing up to 5 results
|